Probability
3 0 0 0 0 0 0 0 0 0 0 0 3 3 0 0 0 0 3 16 23 19 16 13 13 13 13 13 10 13 16 16 16 23 23 23 19 16 10 10 13 10 13
3 0 0 0 0 0 0 0 0 0 0 0 0 3 0 0 0 0 0 3 13 23 23 16 16 13 16 16 13 13 13 23 16 16 19 23 19 19 16 16 10 10 13
0 0 0 0 0 0 0 0 0 0 0 0 0 0 0 0 0 0 0 0 3 10 19 16 19 16 16 16 16 16 10 16 19 13 16 10 13 13 19 6 10 10 13
0 0 0 0 0 0 0 0 0 0 0 0 0 0 0 0 0 0 0 0 0 6 6 16 19 19 19 16 19 16 13 13 13 10 10 3 6 3 3 6 6 3 6
0 0 0 0 0 0 0 0 0 0 0 0 0 0 0 0 0 0 0 0 0 3 3 3 13 13 16 16 19 23 10 10 10 6 3 3 6 3 3 3 3 0 0
0 0 0 0 0 0 0 0 0 0 0 0 0 0 0 0 0 0 0 0 0 0 0 0 3 10 16 16 16 19 10 10 6 3 3 0 6 3 0 0 0 0 0
0 0 0 0 0 0 0 0 0 0 0 0 0 0 0 0 0 0 0 0 0 0 0 0 0 3 3 13 13 13 13 13 10 3 0 0 0 0 3 0 0 0 3
0 0 0 0 0 0 0 0 0 0 0 0 0 0 0 0 0 0 0 0 0 0 0 0 0 0 0 0 6 13 13 13 10 6 3 6 6 0 0 0 0 0 3
0 0 0 0 0 0 0 0 0 0 0 0 0 0 0 0 0 0 0 0 0 0 0 0 0 0 0 0 0 6 10 6 10 10 6 6 6 3 0 0 0 3 3
0 0 0 0 0 0 0 0 0 0 0 0 0 0 0 0 0 0 0 0 0 0 0 0 0 0 0 0 0 0 6 3 3 6 3 6 3 3 3 3 6 6 6
0 0 0 0 0 0 0 0 0 0 0 0 0 0 0 0 0 0 0 0 0 0 0 0 0 0 0 0 0 0 3 3 3 6 3 3 3 0 0 3 6 6 6
0 0 0 0 0 0 0 0 0 0 0 0 0 0 0 0 0 0 0 0 0 0 0 0 0 0 0 0 0 0 0 0 3 3 3 3 3 3 0 0 0 3 0
0 0 0 0 0 0 0 0 0 0 0 0 0 0 0 0 0 0 0 0 0 0 0 0 0 0 0 0 0 0 0 0 0 3 3 3 3 3 0 0 0 0 0
0 0 0 0 0 0 0 0 0 0 0 0 0 0 0 0 0 0 0 0 0 0 0 0 0 0 0 0 0 0 0 0 0 0 0 3 3 0 0 0 0 0 0
0 0 0 0 0 0 0 0 0 0 0 0 0 0 0 0 0 0 0 0 0 0 0 0 0 0 0 0 0 0 0 0 0 0 0 0 0 0 0 0 0 3 3
0 0 0 0 0 0 0 0 0 0 0 0 0 0 0 0 0 0 0 0 0 0 0 0 0 0 0 0 0 0 0 0 0 0 0 0 0 0 0 0 0 0 0
0 0 0 0 0 0 0 0 0 0 0 0 0 0 0 0 0 0 0 0 0 0 0 0 0 0 0 0 0 0 0 0 0 0 0 0 0 0 0 0 0 0 0
0 0 0 0 0 0 0 0 0 0 0 0 0 0 0 0 0 0 0 0 0 0 0 0 0 0 0 0 0 0 0 0 0 0 0 0 0 0 0 0 0 0 0
0 0 0 0 0 0 0 0 0 0 0 0 0 0 0 0 0 0 0 0 0 0 0 0 0 0 0 0 0 0 0 0 0 0 0 0 0 0 0 0 0 0 0
0 0 0 0 0 0 0 0 0 0 0 0 0 0 0 0 0 0 0 0 0 0 0 0 0 0 0 0 0 0 0 0 0 0 0 0 0 0 0 0 0 0 0
0 0 0 0 0 0 0 0 0 0 0 0 0 0 0 0 0 0 0 0 0 0 0 0 0 0 0 0 0 0 0 0 0 0 0 0 0 0 0 0 0 0 0
3 3 0 0 0 0 0 0 0 0 0 0 0 0 0 0 0 0 0 0 0 0 0 0 0 0 0 0 0 0 0 0 0 0 0 0 0 0 0 0 0 0 0
3 3 3 3 0 0 0 0 0 0 0 0 0 0 0 0 0 0 0 0 0 0 0 0 0 0 0 0 0 0 0 0 0 0 0 0 0 0 0 0 0 0 0
0 3 3 3 3 0 0 0 0 0 0 0 0 0 0 0 0 0 0 0 0 0 0 0 0 0 0 0 0 0 0 0 0 0 0 0 0 0 0 0 0 0 0
0 3 0 3 3 3 3 0 0 0 0 0 0 0 0 0 0 0 0 0 0 0 0 0 0 0 0 0 0 0 0 0 0 0 0 0 0 0 0 0 0 0 0
0 0 0 0 0 0 3 0 0 0 0 0 0 0 0 0 0 0 0 0 0 0 0 0 0 0 0 0 0 0 0 0 0 0 0 0 0 0 0 0 0 0 0
Height
5849 5850 5850 5851 5852 5852 5853 5854 5854 5855 5856 5857 5857 5858 5859 5859 5860 5860 5861 5861 5861 5861 5862 5862 5862 5862 5862 5862 5863 5863 5863 5863 5863 5863 5863 5862 5862 5862 5862 5861 5861 5861 5861
5847 5848 5848 5849 5850 5850 5851 5852 5852 5853 5854 5855 5855 5856 5857 5857 5858 5858 5858 5859 5859 5859 5859 5860 5860 5860 5860 5860 5860 5860 5860 5860 5860 5860 5860 5860 5859 5859 5859 5859 5858 5858 5858
5846 5846 5847 5847 5848 5848 5849 5850 5851 5851 5852 5853 5853 5854 5854 5855 5856 5856 5856 5856 5857 5857 5857 5858 5858 5858 5858 5857 5857 5857 5857 5857 5857 5857 5857 5857 5856 5856 5856 5856 5855 5855 5855
5844 5845 5845 5845 5846 5847 5847 5848 5849 5849 5850 5851 5851 5852 5852 5853 5853 5853 5854 5854 5855 5855 5855 5855 5855 5855 5855 5855 5855 5855 5854 5854 5854 5854 5854 5854 5854 5853 5853 5852 5852 5852 5851
5843 5843 5843 5844 5844 5845 5845 5846 5847 5847 5848 5849 5849 5850 5850 5851 5851 5851 5852 5852 5852 5853 5853 5853 5853 5853 5852 5852 5852 5852 5852 5851 5851 5851 5851 5851 5851 5850 5850 5849 5849 5849 5848
5841 5842 5842 5842 5843 5843 5843 5844 5845 5845 5846 5847 5847 5848 5848 5848 5849 5849 5849 5849 5850 5850 5850 5850 5850 5850 5850 5849 5849 5849 5849 5848 5848 5848 5848 5848 5848 5847 5847 5846 5846 5845 5844
5840 5840 5840 5840 5841 5841 5841 5842 5842 5843 5844 5844 5845 5845 5845 5846 5846 5846 5847 5847 5847 5847 5847 5847 5847 5847 5847 5846 5846 5846 5846 5846 5845 5845 5845 5845 5844 5844 5843 5843 5842 5842 5841
5838 5838 5838 5838 5839 5839 5839 5840 5840 5841 5841 5842 5842 5843 5843 5844 5843 5844 5844 5844 5844 5844 5844 5844 5844 5844 5844 5843 5843 5843 5843 5842 5842 5842 5842 5841 5840 5840 5840 5839 5839 5838 5837
5836 5836 5836 5836 5836 5837 5837 5837 5837 5838 5838 5839 5839 5840 5840 5840 5841 5841 5841 5841 5841 5841 5841 5841 5840 5840 5840 5840 5840 5839 5839 5838 5838 5838 5838 5838 5837 5836 5836 5835 5834 5834 5832
5834 5834 5834 5834 5834 5834 5834 5834 5834 5835 5835 5835 5836 5836 5837 5837 5837 5838 5838 5837 5837 5838 5838 5837 5837 5837 5837 5836 5836 5836 5835 5835 5835 5834 5834 5833 5833 5832 5832 5831 5830 5830 5828
5832 5832 5832 5831 5831 5831 5831 5831 5831 5831 5832 5832 5832 5832 5833 5833 5833 5833 5834 5834 5834 5834 5834 5834 5833 5833 5833 5832 5832 5832 5831 5831 5831 5830 5830 5829 5829 5828 5828 5827 5826 5826 5825
5829 5829 5829 5829 5828 5828 5828 5828 5828 5828 5828 5828 5829 5829 5828 5828 5828 5829 5829 5829 5830 5830 5830 5830 5829 5829 5829 5829 5828 5828 5828 5827 5827 5826 5826 5825 5825 5824 5824 5823 5823 5822 5821
5826 5826 5826 5825 5825 5825 5825 5825 5825 5825 5824 5824 5824 5824 5824 5824 5824 5824 5825 5825 5825 5825 5825 5825 5825 5825 5825 5825 5824 5824 5824 5823 5823 5823 5822 5821 5820 5819 5819 5819 5818 5818 5817
5823 5822 5822 5822 5822 5821 5821 5821 5821 5820 5820 5820 5820 5820 5820 5819 5820 5820 5820 5820 5821 5821 5821 5821 5821 5821 5821 5821 5820 5820 5820 5819 5819 5818 5818 5817 5816 5815 5815 5814 5814 5813 5812
5819 5819 5818 5818 5818 5817 5817 5817 5816 5816 5815 5815 5815 5815 5815 5815 5815 5815 5815 5816 5816 5816 5816 5816 5816 5816 5816 5816 5816 5816 5815 5815 5814 5814 5813 5812 5812 5811 5810 5810 5809 5808 5807
5816 5815 5815 5814 5813 5812 5813 5812 5812 5812 5811 5811 5811 5810 5810 5810 5810 5810 5811 5811 5811 5811 5811 5811 5811 5811 5811 5811 5811 5811 5810 5810 5810 5809 5808 5808 5807 5806 5805 5805 5804 5803 5802
5812 5812 5811 5810 5809 5809 5808 5808 5808 5808 5807 5807 5806 5806 5806 5805 5805 5806 5806 5806 5805 5806 5806 5806 5805 5805 5805 5806 5805 5805 5805 5805 5804 5804 5803 5802 5802 5801 5800 5800 5799 5798 5797
5808 5807 5806 5806 5805 5805 5805 5804 5804 5804 5803 5803 5802 5801 5801 5801 5800 5800 5800 5800 5800 5800 5800 5800 5800 5799 5799 5799 5799 5799 5799 5799 5799 5798 5797 5797 5796 5795 5795 5794 5793 5792 5791
5803 5802 5802 5802 5801 5801 5800 5800 5800 5799 5799 5798 5798 5797 5796 5796 5795 5795 5795 5795 5795 5794 5794 5794 5794 5793 5793 5793 5793 5793 5793 5793 5792 5792 5791 5791 5790 5789 5788 5787 5787 5786 5786
5798 5798 5797 5797 5796 5796 5796 5796 5795 5795 5794 5793 5793 5792 5791 5791 5790 5790 5790 5789 5789 5788 5788 5788 5788 5787 5787 5787 5786 5786 5786 5786 5786 5785 5785 5784 5783 5782 5782 5781 5780 5780 5779
5794 5793 5792 5792 5792 5792 5791 5791 5790 5790 5789 5788 5788 5787 5786 5785 5785 5784 5784 5784 5783 5782 5782 5782 5781 5781 5780 5780 5779 5779 5779 5779 5779 5778 5778 5777 5776 5775 5774 5774 5773 5772 5772
5788 5788 5787 5787 5787 5786 5786 5785 5785 5785 5784 5783 5782 5781 5781 5780 5780 5779 5778 5778 5777 5777 5776 5775 5775 5774 5773 5772 5772 5772 5772 5772 5771 5771 5770 5769 5769 5768 5767 5766 5765 5764 5764
5783 5782 5782 5782 5781 5781 5781 5780 5780 5779 5778 5778 5777 5776 5775 5774 5774 5773 5772 5772 5771 5770 5770 5769 5768 5767 5766 5766 5765 5765 5764 5764 5763 5763 5762 5761 5761 5760 5759 5758 5757 5756 5755
5777 5777 5776 5776 5776 5775 5775 5774 5774 5773 5772 5771 5771 5770 5769 5769 5768 5767 5766 5766 5765 5763 5763 5762 5761 5760 5759 5758 5758 5757 5757 5756 5755 5754 5754 5753 5752 5752 5751 5750 5749 5748 5747
5771 5771 5770 5770 5770 5769 5769 5768 5767 5766 5766 5765 5764 5764 5763 5762 5761 5760 5760 5759 5758 5757 5756 5754 5753 5752 5752 5751 5750 5749 5749 5748 5747 5746 5745 5745 5744 5743 5743 5742 5740 5739 5738
5765 5765 5764 5764 5763 5763 5762 5761 5760 5760 5759 5759 5758 5757 5756 5755 5754 5753 5753 5752 5751 5750 5749 5747 5746 5745 5744 5743 5742 5741 5740 5739 5739 5738 5737 5736 5735 5734 5734 5733 5732 5730 5729
Wind_Speed
8 8 9 10 10 10 10 9 9 10 11 11 11 11 10 10 10 10 10 10 11 11 10 11 11 12 12 12 13 13 13 13 13 13 13 13 12 12 13 13 13 13 13
7 8 8 9 9 9 9 9 9 10 10 11 11 11 10 9 9 9 9 9 9 10 11 10 10 11 11 12 12 13 13 12 13 13 13 13 13 13 13 13 13 14 14
7 8 8 8 8 8 8 9 9 9 9 9 9 9 10 10 10 9 9 9 10 10 10 10 10 11 11 11 11 11 11 12 13 12 13 13 14 14 14 14 14 14 14
8 8 8 8 8 8 8 9 9 9 9 9 8 8 9 10 10 9 9 10 10 10 10 10 11 11 11 11 10 10 10 11 11 11 11 12 12 13 14 14 14 15 15
8 8 8 8 8 8 8 8 9 9 9 9 9 9 9 9 9 9 10 10 10 11 11 11 11 11 11 11 11 11 11 11 11 11 11 11 11 12 12 12 13 14 14
8 8 8 8 8 8 9 9 9 9 10 9 9 10 10 9 9 9 10 11 11 12 12 12 12 12 12 11 11 12 12 11 11 11 11 11 12 13 13 13 13 13 14
8 8 8 8 8 9 9 9 10 10 10 10 10 10 10 10 10 11 11 11 12 12 12 12 12 12 12 13 13 12 12 12 12 12 12 13 13 14 14 14 14 14 15
8 8 9 9 9 9 10 10 10 10 10 11 11 11 11 11 12 12 12 12 12 12 12 12 13 13 13 13 14 14 14 14 14 14 14 14 14 15 15 15 15 15 16
9 9 9 10 10 10 11 12 12 12 11 12 12 12 12 13 13 13 13 13 13 13 13 13 14 14 14 14 14 14 15 15 15 16 16 16 16 16 16 15 16 16 16
10 10 10 10 11 11 12 12 13 13 12 12 13 13 14 14 15 14 14 14 14 14 14 14 14 15 15 15 15 16 15 16 16 15 15 15 15 16 16 16 16 16 16
11 11 11 11 11 11 12 13 13 13 13 13 13 14 15 15 15 15 15 15 15 14 15 15 15 15 15 15 16 16 15 15 16 17 17 17 17 17 17 17 17 16 16
12 12 13 13 12 12 12 12 13 13 14 14 14 15 15 15 15 15 15 15 15 15 15 15 16 15 15 15 15 15 15 15 15 16 17 18 18 18 17 16 16 16 16
14 14 14 14 14 13 13 13 14 14 14 15 15 16 16 16 15 15 16 16 16 16 16 16 16 16 15 15 15 15 15 15 16 17 17 18 18 17 16 16 17 17 16
15 15 15 14 14 14 15 15 15 15 16 16 16 16 16 16 16 16 16 16 17 17 17 17 16 16 16 16 16 16 17 17 18 18 18 18 17 17 17 17 17 17 17
14 15 15 15 15 15 16 16 16 15 15 15 16 16 16 16 17 17 17 17 16 17 17 17 17 17 17 17 17 17 18 18 19 19 18 19 18 18 18 18 18 18 18
14 15 15 17 16 16 16 15 15 14 14 15 15 15 16 17 17 17 17 17 17 18 18 18 19 19 19 19 19 19 19 19 19 19 19 19 19 19 19 18 19 18 18
16 16 17 17 17 16 16 15 15 15 15 15 16 16 16 17 18 18 19 19 19 18 19 19 20 21 21 21 21 21 20 20 20 20 20 20 20 20 19 20 20 18 18
17 17 17 17 17 16 16 15 15 15 16 17 17 17 17 17 17 18 19 19 19 19 19 19 20 21 22 22 22 22 22 22 21 21 21 21 21 21 21 21 21 20 19
18 17 17 17 17 17 16 16 17 16 16 17 17 17 17 18 18 18 18 18 19 20 20 20 21 21 22 22 22 22 22 22 22 22 22 22 22 22 22 22 21 21 20
17 18 18 18 18 18 17 17 18 18 17 17 18 18 18 18 18 19 19 20 20 21 21 21 22 23 23 23 23 23 23 23 23 22 22 22 23 23 23 22 23 22 21
19 19 19 18 18 18 18 18 18 18 18 18 19 19 19 19 19 20 20 21 22 22 22 22 23 23 23 23 23 22 23 23 23 23 23 24 24 24 24 23 24 24 24
20 19 19 19 19 19 19 20 20 19 19 19 20 20 20 20 20 21 21 22 22 23 23 23 23 23 23 23 22 23 23 24 24 24 24 24 24 24 24 24 25 25 26
20 19 20 20 20 20 20 20 20 20 21 21 21 21 21 21 21 21 22 22 22 23 23 23 23 23 23 23 23 23 24 24 24 25 25 25 25 25 25 25 26 26 26
21 20 21 21 21 21 22 21 22 22 22 22 21 21 21 21 22 22 22 23 23 23 23 24 24 24 24 24 24 24 25 25 26 26 26 26 26 26 26 27 27 27 27
22 22 21 22 22 23 23 23 23 24 24 23 22 22 22 22 22 23 24 24 24 24 25 25 25 25 24 25 25 26 26 27 26 26 27 27 27 28 28 28 28 28 28
22 22 22 23 23 24 24 24 25 25 24 24 23 23 23 24 24 24 25 25 26 26 26 26 26 25 25 26 26 26 27 27 27 28 28 28 29 29 29 29 30 30 30
Wind_Direction
262 260 261 262 263 263 263 263 267 269 267 266 263 263 264 264 265 265 269 269 268 270 273 274 273 271 273 274 277 277 278 276 277 278 279 282 284 282 281 281 281 280 280
272 264 261 262 262 261 259 263 266 267 267 267 265 264 264 265 269 267 270 273 274 272 273 274 273 274 276 277 277 277 279 279 279 277 278 280 282 281 280 281 281 281 279
281 275 268 265 266 262 259 263 266 267 270 271 266 261 264 269 271 270 270 273 275 276 277 274 274 276 278 279 281 279 279 279 281 279 280 282 283 283 280 279 279 279 280
283 279 273 270 269 266 264 264 266 268 269 271 267 261 263 269 272 269 270 272 272 273 276 276 275 277 279 281 283 283 286 286 283 283 283 284 286 286 284 282 281 281 282
279 278 273 272 269 268 267 269 270 268 267 272 269 266 267 268 271 271 272 272 272 273 276 279 279 280 281 281 282 285 286 286 286 287 287 288 288 288 286 285 285 285 286
285 282 278 274 271 269 269 271 273 272 268 271 269 267 269 269 271 273 275 275 275 275 275 278 278 279 281 280 280 280 282 285 285 284 286 289 290 287 284 284 287 287 287
286 284 283 278 277 273 269 272 274 273 272 271 270 268 270 272 273 276 277 276 275 275 275 278 276 277 278 279 279 281 280 280 280 282 285 289 290 288 285 287 290 290 291
287 288 285 279 280 277 274 273 273 272 271 270 270 269 269 271 272 274 276 277 276 277 277 278 279 278 276 278 279 279 279 278 280 282 283 286 285 285 284 288 291 293 292
283 287 284 282 280 278 278 276 273 270 268 267 269 269 269 270 272 273 273 275 276 277 277 279 280 279 278 277 280 281 279 277 277 280 282 283 283 285 286 287 289 291 291
283 284 283 283 285 280 277 278 274 271 268 267 270 271 272 273 273 272 273 273 274 276 277 278 279 279 279 279 279 281 281 280 278 279 280 283 283 286 286 291 291 292 291
287 286 284 285 288 283 280 278 276 274 270 270 272 274 274 274 274 273 272 273 274 275 277 277 279 281 282 281 281 282 283 283 281 280 282 284 286 287 289 290 292 292 292
289 288 286 285 286 285 282 280 275 276 271 272 274 275 276 275 274 273 272 272 274 276 277 278 279 282 283 283 283 282 283 283 284 285 287 286 287 289 289 287 288 290 292
288 287 286 284 285 285 285 283 278 277 274 272 273 272 273 273 274 272 273 274 275 275 276 277 278 280 281 283 284 284 284 285 287 289 290 287 287 289 288 286 287 288 289
286 287 286 285 282 282 284 283 280 280 278 275 273 273 274 273 274 274 275 277 276 275 275 276 277 278 279 281 283 285 285 286 288 289 289 291 287 286 286 287 289 289 287
286 286 287 285 282 282 285 285 283 282 279 276 275 275 274 275 275 274 275 275 275 275 276 277 277 277 279 281 283 285 286 287 288 289 288 290 288 287 287 286 288 287 285
286 285 285 285 283 282 285 284 281 283 281 279 278 278 275 274 275 275 274 277 278 278 277 277 277 276 278 280 282 285 286 286 287 288 288 289 289 289 287 285 284 284 284
286 284 284 283 284 284 286 284 282 282 283 283 282 280 277 275 275 276 276 277 279 280 279 278 279 280 279 280 281 283 285 286 287 288 287 288 288 288 287 284 283 282 284
289 287 285 282 283 284 284 282 283 285 285 286 286 284 282 278 278 278 278 277 278 280 280 281 280 281 282 282 281 281 283 284 285 286 286 287 286 285 285 285 281 280 281
290 288 285 282 282 282 281 281 282 284 285 285 286 285 283 283 282 281 280 280 280 281 282 282 283 282 282 282 282 282 282 283 283 285 285 286 285 284 283 284 280 276 276
289 287 286 283 279 279 280 281 283 283 285 287 288 286 285 283 283 282 282 283 283 284 283 283 284 284 282 283 284 282 282 282 283 284 285 284 285 285 283 284 280 276 275
287 286 284 282 279 277 278 279 281 283 285 286 288 287 285 283 283 283 283 284 284 284 284 284 284 284 282 282 283 283 283 283 283 284 283 282 282 283 282 283 282 279 276
288 286 282 282 279 277 277 279 280 282 284 286 286 285 283 283 283 283 283 284 284 284 284 284 284 284 283 281 282 283 283 283 282 283 282 282 281 282 282 281 281 280 278
287 284 283 283 282 280 281 282 282 282 283 286 286 285 284 283 283 283 284 284 284 284 284 285 286 284 282 281 282 283 283 283 283 282 282 281 281 280 281 282 283 282 280
285 283 282 281 281 281 281 282 283 283 283 285 285 284 284 282 283 284 286 286 286 286 286 286 286 285 283 281 282 282 282 283 283 284 283 281 281 281 281 281 282 282 281
286 283 283 282 280 279 279 280 281 283 283 283 284 285 284 284 283 284 285 285 286 286 286 287 286 284 283 282 282 283 283 283 284 284 284 282 281 280 280 280 281 281 281
287 284 283 284 282 281 280 280 281 282 282 282 282 283 284 284 284 283 285 285 286 286 285 285 284 283 283 283 283 283 284 284 284 285 284 283 281 280 279 279 279 280 281